Flag for Hong Kong Weather past 2 weeks in Kowloon, Hong Kong

Now
77 °F

Passing clouds.


Feels Like: 79 °F
Forecast: 62 / 69 °F
Wind: 15 mph from Southeast

Location: National Airport

Current Time: Mar 3, 2015 at 4:06:21 PM

Latest Report: Mar 3, 2015 at 3:30 PM


Visibility: N/A

Pressure: 29.80 "Hg

Humidity: 74%

Dew point: 68 °F

Location of KowloonLocation

Historic Weather in Kowloon — Graph

°F

Kowloon temperature yesterday

Maximum temperature yesterday: 68 °F (at 12:00 AM)
Minimum temperature yesterday: 64 °F (at 3:30 AM)
Average temperature yesterday: 66 °F

Past Weeks' High & Low Weather Summary

 TemperatureHumidityPressure
High82 °F (Feb 26, 1:30 PM)94% (Feb 17, 5:00 AM)30.18 "Hg (Feb 17, 5:00 AM)
Low63 °F (Feb 19, 11:30 PM)53% (Mar 1, 8:30 PM)29.80 "Hg (Mar 3, 3:00 PM)
Average69 °F79%29.99 "Hg
* Reported Feb 16 3:00 PM — Mar 3 3:00 PM, Kowloon, Weather by CustomWeather, © 2015

Note: Actual official high and low records may vary slightly from our data, if they occured in-between our weather recording intervals... More about our weather records

Advertising

Kowloon weather history for previous 24 hours

 ConditionsComfort  
Time TempWeatherWind HumidityBarometerVisibility
3:00 PM
Tue, Mar 3
75 °FPassing clouds.14 mph78%29.80 "HgN/A
2:30 PM75 °FPassing clouds.13 mph74%29.83 "HgN/A
2:00 PM75 °FPassing clouds.13 mph74%29.83 "Hg6 mi
1:30 PM75 °FScattered clouds.16 mph74%29.86 "Hg5 mi
1:00 PM73 °FScattered clouds.14 mph78%29.86 "Hg4 mi
12:30 PM73 °FScattered clouds.14 mph78%29.89 "Hg4 mi
12:00 PM73 °FScattered clouds.15 mph74%29.89 "Hg4 mi
11:30 AM72 °FScattered clouds.17 mph78%29.92 "Hg4 mi
11:00 AM72 °FScattered clouds.16 mph78%29.92 "Hg3 mi
10:30 AM70 °FScattered clouds.13 mph83%29.92 "Hg3 mi
10:00 AM70 °FScattered clouds.13 mph83%29.92 "Hg4 mi
9:30 AM70 °FScattered clouds.16 mph78%29.92 "Hg4 mi
9:00 AM66 °FScattered clouds.15 mph83%29.92 "Hg4 mi
8:30 AM66 °FScattered clouds.15 mph83%29.92 "Hg4 mi
8:00 AM66 °FScattered clouds.15 mph83%29.92 "Hg4 mi
7:30 AM66 °FPassing clouds.16 mph83%29.89 "Hg4 mi
7:00 AM66 °FPassing clouds.15 mph83%29.89 "Hg4 mi
6:30 AM64 °FPassing clouds.15 mph88%29.89 "Hg5 mi
6:00 AM64 °FPassing clouds.18 mph88%29.86 "Hg5 mi
5:30 AM64 °FPassing clouds.15 mph88%29.89 "Hg5 mi
5:00 AM64 °FPassing clouds.16 mph88%29.86 "Hg6 mi
4:30 AM64 °FPassing clouds.15 mph88%29.86 "Hg5 mi
4:00 AM64 °FPassing clouds.16 mph88%29.89 "Hg6 mi
3:30 AM64 °FPassing clouds.15 mph88%29.89 "Hg6 mi
3:00 AM64 °FPassing clouds.17 mph88%29.89 "Hg6 mi
2:30 AM64 °FPassing clouds.17 mph88%29.92 "HgN/A
2:00 AM64 °FPassing clouds.14 mph88%29.92 "HgN/A
1:30 AM64 °FPassing clouds.16 mph88%29.92 "Hg6 mi
1:00 AM66 °FPassing clouds.15 mph83%29.92 "Hg6 mi
12:30 AM64 °FPassing clouds.16 mph88%29.92 "HgN/A
12:00 AM66 °FPassing clouds.16 mph83%29.92 "HgN/A
11:30 PM
Mon, Mar 2
64 °FPassing clouds.20 mph88%29.92 "HgN/A
11:00 PM66 °FPassing clouds.22 mph83%29.92 "HgN/A
10:30 PM66 °FPassing clouds.21 mph83%29.89 "HgN/A
10:00 PM66 °FPassing clouds.18 mph83%29.89 "Hg5 mi
9:30 PM64 °FLight rain. Passing clouds.15 mph88%29.92 "Hg5 mi
9:00 PM64 °FLight rain. Passing clouds.17 mph88%29.92 "Hg4 mi
8:30 PM66 °FLight rain. Passing clouds.16 mph83%29.92 "Hg5 mi
8:00 PM64 °FLight rain. Passing clouds.17 mph83%29.89 "Hg4 mi
7:30 PM64 °FPassing clouds.14 mph83%29.89 "Hg5 mi
7:00 PM66 °FPassing clouds.13 mph78%29.89 "Hg5 mi
6:30 PM66 °FPassing clouds.15 mph78%29.89 "Hg4 mi
6:00 PM64 °FScattered clouds.16 mph83%29.89 "Hg4 mi
5:30 PM66 °FScattered clouds.17 mph78%29.89 "Hg5 mi
5:00 PM68 °FScattered clouds.15 mph73%29.89 "Hg5 mi
4:30 PM66 °FScattered clouds.16 mph78%29.92 "Hg6 mi
4:00 PM68 °FScattered clouds.20 mph73%29.92 "Hg6 mi
Weather by CustomWeather, © 2015

See weather overviewHow to use our weather pages